Presure
190 184 179 171 169 171 159 151 167 161 152 126 158 174 133 146 157 157 119 146 137 125 145 129 138 153 153 140 135 125 144 127 145 120 138 156 126 146 131 109 120 136 100 110 168
185 179 162 173 172 153 162 148 163 156 139 152 144 142 148 139 162 141 154 129 135 115 160 93 116 110 138 125 140 117 100 114 135 121 129 120 121 119 125 121 121 125 149 139 114
180 168 159 171 164 147 157 162 155 139 156 147 142 144 133 130 126 124 145 117 122 131 125 122 123 151 128 129 132 121 145 114 124 128 143 122 123 117 113 110 93 122 121 144 142
140 169 171 150 156 149 156 159 133 153 155 150 113 111 135 132 128 138 150 120 116 117 127 146 133 132 140 149 161 122 140 128 138 106 137 154 140 123 118 118 122 123 132 113 126
165 167 153 159 161 156 150 143 151 129 131 144 126 120 123 144 143 163 125 119 103 120 126 119 140 108 154 145 108 148 128 140 122 110 126 118 127 133 135 138 132 164 148 118 123
146 155 158 155 161 136 158 130 125 143 137 126 148 117 156 126 124 126 134 151 122 141 116 127 137 127 124 117 118 124 114 114 115 123 117 124 156 114 114 167 125 124 124 114 115
147 167 169 134 145 151 106 166 137 120 133 164 138 125 111 130 135 115 133 120 136 124 111 122 120 128 128 115 125 111 118 116 110 109 110 136 113 154 121 114 115 173 117 155 130
158 153 154 160 159 145 160 155 134 157 110 113 144 123 135 141 131 125 127 118 149 129 125 113 134 135 120 126 122 144 118 133 118 151 148 156 117 119 147 164 131 133 118 124 121
123 152 148 136 143 136 145 133 156 126 134 138 138 129 148 125 138 135 151 148 140 143 131 140 156 143 146 133 124 130 114 131 138 130 148 115 163 177 137 128 106 110 124 140 119
148 137 152 151 106 113 122 141 135 131 116 130 140 135 145 151 133 147 151 157 136 136 141 141 133 126 120 117 137 141 154 142 122 129 125 152 145 173 150 158 171 159 161 128 154
154 130 157 135 115 111 152 91 172 137 151 122 123 141 152 133 137 153 149 142 141 136 159 128 126 108 130 129 125 134 152 141 131 103 152 101 109 157 133 170 144 201 178 151 130
142 110 150 163 147 119 117 142 123 145 151 122 138 153 154 164 160 173 142 138 140 148 128 141 116 113 127 107 128 134 146 121 131 125 147 124 149 160 136 186 193 180 149 132 142
153 130 117 138 115 114 168 137 139 121 163 157 162 162 129 150 141 147 150 173 143 141 122 126 136 136 127 121 108 106 146 144 145 98 150 153 149 177 181 211 171 133 125 143 165
132 142 139 126 110 113 107 122 124 157 148 128 158 140 162 156 152 165 153 141 145 125 121 125 125 115 107 151 103 107 141 132 133 148 146 139 167 166 175 138 139 137 136 165 166
126 182 125 113 124 92 100 125 125 134 139 138 154 148 136 165 130 141 92 121 118 150 123 130 119 110 142 143 139 125 122 162 143 101 168 163 171 187 190 200 128 127 151 164 134
132 110 135 115 135 150 123 127 147 123 147 161 168 145 113 144 120 110 150 129 153 131 129 145 135 152 156 140 130 130 111 147 159 157 163 170 188 159 161 136 149 144 157 170 171
168 146 121 123 125 160 146 159 138 155 110 125 121 136 126 137 100 107 155 96 157 149 164 127 136 111 139 142 156 153 163 166 161 177 166 177 174 155 131 137 157 162 173 173 125
130 111 116 122 125 122 161 138 135 152 165 158 163 149 129 170 148 148 148 84 134 124 123 126 139 150 154 163 165 171 169 175 178 175 135 180 175 139 151 153 165 177 168 83 103
143 139 124 137 145 156 154 164 155 161 159 157 162 137 145 160 155 161 130 123 156 132 163 180 137 163 162 150 153 179 184 181 182 175 133 131 141 147 166 168 181 87 179 140 184
144 171 145 159 169 163 110 158 163 144 129 124 142 139 129 154 156 116 122 124 131 148 145 148 152 165 170 156 176 176 143 177 177 124 143 163 168 130 149 108 124 174 188 183 185
151 149 133 151 159 148 146 146 147 144 142 133 150 170 160 164 138 129 179 156 157 159 157 174 172 170 182 179 176 177 154 149 180 187 190 160 162 75 93 175 182 174 196 203 200
164 149 142 150 157 160 151 129 134 136 136 169 171 173 156 154 137 142 152 159 173 167 167 165 173 183 182 131 141 167 196 142 142 159 168 166 121 69 180 202 179 205 204 201 203
147 157 159 153 153 165 164 172 157 167 157 142 150 148 150 153 147 161 156 163 173 172 166 160 182 132 180 179 122 149 114 158 159 165 168 182 174 186 191 164 156 178 205 207 194
177 175 162 165 169 167 166 161 159 127 160 166 162 169 156 156 160 171 170 152 176 158 174 142 151 160 129 128 149 135 198 164 167 167 170 175 182 181 191 182 181 183 204 191 200
132 154 174 168 171 173 152 143 124 172 173 173 171 168 136 167 178 112 176 175 182 167 110 103 146 115 182 179 169 166 159 166 169 172 178 179 181 196 198 187 184 190 199 199 198
122 122 148 125 97 112 177 134 141 152 107 165 169 155 143 120 128 184 111 147 146 162 92 129 199 216 167 162 160 169 170 176 178 176 184 195 198 197 197 199 204 197 198 195 192
157 193 203 132 139 154 155 154 136 176 144 147 154 190 150 179 202 206 143 140 167 167 162 173 165 165 167 184 110 176 182 182 176 185 187 191 183 189 196 202 197 197 192 200 219
Wind_Speed
35 34 32 29 29 28 27 23 21 20 22 11 14 15 16 15 3 4 7 5 4 1 5 3 7 11 10 9 14 14 15 17 17 21 21 13 27 17 31 23 14 29 20 16 32
35 34 29 29 28 25 23 23 19 21 19 18 19 18 13 14 3 9 7 6 3 1 3 16 6 8 13 11 14 16 9 19 18 23 23 29 31 33 32 39 39 39 22 31 32
34 30 29 29 26 24 24 20 17 19 16 20 18 15 12 6 5 6 5 2 3 5 7 7 12 18 13 14 14 17 19 22 24 25 22 30 28 34 35 35 19 45 43 28 31
21 31 29 27 24 29 25 21 15 17 11 16 12 12 9 5 2 8 9 5 4 11 11 14 13 15 17 17 18 22 21 24 22 28 27 22 28 38 42 43 44 46 41 43 49
29 33 30 29 26 27 23 24 20 15 11 17 8 4 2 11 11 13 7 7 15 14 17 15 17 15 20 19 22 20 23 29 29 36 32 39 40 35 37 36 38 34 33 41 55
25 31 31 29 25 21 22 18 14 17 16 3 11 6 16 8 9 11 13 17 13 18 17 20 19 23 24 28 29 26 34 36 30 32 37 41 39 48 48 34 51 53 52 44 56
31 33 29 21 28 27 11 20 20 9 8 17 16 8 13 15 15 15 19 20 20 21 18 26 25 26 27 32 29 32 34 38 41 44 47 41 46 28 52 45 52 53 58 47 55
37 34 32 28 27 23 25 26 19 23 16 16 15 19 23 22 21 18 23 22 24 23 26 16 26 26 33 33 33 28 37 35 43 31 32 30 49 47 38 43 54 51 60 63 63
21 33 32 20 25 18 16 23 30 20 13 13 23 17 26 21 24 26 27 27 27 28 30 28 30 33 27 30 35 35 43 39 40 40 33 54 45 56 47 55 55 61 63 54 71
35 24 32 32 16 17 8 15 15 25 13 15 29 22 24 29 33 31 30 31 30 30 29 30 31 34 39 42 35 33 40 32 43 48 50 40 43 59 41 52 62 50 61 66 58
37 26 36 23 24 25 28 8 31 28 33 15 17 33 33 30 32 33 33 31 31 29 36 32 34 30 32 40 40 35 43 38 46 51 46 50 60 47 55 67 51 61 58 65 73
30 25 36 30 24 28 25 32 20 35 36 20 36 35 37 35 38 34 35 32 33 37 33 37 38 38 36 42 38 38 45 42 49 58 50 57 46 50 54 71 65 60 56 65 62
35 30 34 35 31 31 36 33 31 24 37 37 38 39 26 41 38 40 42 39 39 38 35 37 43 43 41 43 46 49 50 54 51 45 58 60 58 75 63 65 61 61 74 65 77
29 35 38 30 34 35 30 30 28 35 39 30 41 39 43 44 45 44 45 41 45 40 41 41 44 41 38 57 45 50 58 52 54 62 63 66 73 72 75 49 52 59 66 82 82
39 38 32 38 37 8 18 32 33 39 42 40 46 48 37 45 35 43 21 41 41 50 45 47 46 45 53 55 52 50 53 69 60 54 72 77 75 80 66 73 56 65 79 87 71
42 31 37 40 41 43 40 40 49 41 48 48 49 48 38 46 40 25 50 45 55 49 50 59 56 65 68 58 54 60 58 67 71 74 77 77 76 67 75 58 69 69 82 93 95
49 46 46 47 45 46 45 49 47 52 43 45 46 46 42 50 24 32 55 37 60 59 63 55 59 48 62 65 74 71 77 77 76 74 78 77 79 76 61 67 78 84 93 94 52
49 33 35 49 50 48 53 47 47 55 54 57 58 56 52 59 58 59 61 34 62 58 56 59 68 76 80 81 81 80 84 84 81 80 62 82 84 76 80 80 89 92 96 25 63
51 52 53 54 53 56 54 56 58 58 58 61 62 50 59 62 62 65 59 58 67 67 69 69 69 75 80 77 79 84 87 88 88 87 63 69 81 85 89 93 94 29 99 74 101
54 57 56 58 57 58 43 60 59 55 56 56 61 60 58 65 68 52 64 65 70 76 74 76 78 80 81 82 85 89 69 91 86 58 73 85 92 54 78 40 61 99 101 103 105
60 60 58 62 62 61 62 62 65 64 63 62 68 70 71 72 66 67 72 72 77 79 83 83 84 83 87 88 87 89 83 81 92 97 97 88 96 12 28 101 101 102 108 106 106
65 64 64 64 68 69 68 64 66 68 66 72 74 75 73 75 68 71 79 81 80 82 84 88 89 89 90 68 76 88 92 83 83 93 91 97 69 24 108 110 109 108 109 112 110
62 70 72 73 72 74 74 74 78 79 80 71 74 73 76 79 74 81 77 84 88 89 90 83 92 66 91 94 60 87 63 98 98 99 102 106 108 112 115 100 97 113 114 112 118
79 78 78 81 80 79 79 79 84 53 81 86 83 85 84 83 87 86 90 78 91 84 96 80 85 90 67 72 89 74 94 103 103 107 109 111 111 117 117 117 118 120 114 124 121
64 73 86 83 84 84 76 74 59 90 90 89 90 91 70 92 95 55 94 96 96 90 50 43 79 61 98 103 101 100 102 110 110 113 116 115 120 117 117 119 119 126 123 124 126
58 60 75 65 43 51 91 75 76 83 53 91 92 87 85 60 68 98 50 89 88 96 47 80 101 97 100 106 102 104 112 114 119 118 117 117 119 122 123 123 122 125 126 127 126
76 90 93 74 79 84 88 86 76 98 82 86 88 99 90 86 98 97 85 86 98 100 103 106 108 107 102 114 65 110 115 117 119 125 125 123 121 128 129 126 127 128 126 129 129
Wind_Direction
152 152 151 155 152 139 158 170 131 142 156 184 140 145 183 170 114 182 177 167 171 166 338 319 342 300 297 325 353 342 313 341 298 330 329 323 329 321 324 313 292 317 300 299 350
153 152 167 148 141 173 149 174 143 161 182 160 176 182 172 182 184 182 233 188 218 220 261 262 322 318 315 333 287 323 309 321 314 329 322 328 324 325 319 324 324 317 312 311 319
156 165 173 148 152 181 169 153 163 193 157 179 188 184 197 207 200 197 217 173 331 308 318 288 319 260 320 323 320 318 283 326 320 315 285 317 310 322 322 325 274 318 318 302 299
188 160 151 183 167 187 174 165 178 170 182 186 196 199 212 247 287 242 246 337 307 283 314 274 299 306 290 289 256 316 271 307 281 332 282 303 294 305 311 313 309 306 293 320 310
165 162 181 172 165 177 184 196 186 186 206 208 201 169 330 245 246 253 311 264 255 316 310 315 279 327 263 266 329 268 295 271 305 324 289 304 287 302 283 293 290 319 304 316 306
191 186 182 182 172 200 181 178 182 209 218 220 219 244 238 234 320 285 282 260 281 267 319 301 271 294 297 310 306 295 313 311 308 294 305 286 310 312 313 327 293 298 298 310 314
198 171 168 189 204 199 218 201 223 207 243 229 250 251 233 307 247 272 279 319 271 297 313 302 302 284 277 303 278 316 297 300 310 312 309 315 311 309 303 304 321 332 308 312 290
191 197 197 188 191 208 203 212 231 223 228 216 244 276 256 265 288 273 293 297 269 281 287 295 268 271 286 283 284 283 285 294 284 299 297 312 307 326 291 328 284 287 308 293 302
195 194 207 211 222 213 223 223 220 239 278 249 271 254 252 274 291 278 271 271 271 275 277 281 296 291 286 275 273 281 293 288 297 277 298 292 322 328 287 284 313 311 307 308 300
204 214 213 217 242 219 206 238 258 242 249 300 250 284 262 261 291 274 271 277 279 283 281 288 282 273 279 281 287 292 308 290 286 281 284 308 293 325 305 308 327 312 308 287 315
209 221 216 225 224 237 241 275 227 272 255 255 275 278 262 294 290 271 277 281 285 284 293 278 274 298 272 279 271 287 309 295 276 315 307 314 305 316 276 325 288 331 322 309 287
218 239 227 223 232 253 246 252 251 263 259 264 284 260 267 270 271 277 285 289 288 291 281 292 276 279 291 295 279 289 306 289 288 300 304 314 302 310 283 323 325 319 307 293 319
219 221 235 235 246 254 233 247 260 259 251 256 258 262 283 276 286 284 283 287 292 293 277 280 298 292 278 277 288 295 304 303 308 307 312 317 309 318 311 323 315 283 283 300 322
224 232 235 235 260 261 277 259 257 254 265 267 263 281 270 272 276 276 283 293 291 275 278 280 280 280 300 298 294 293 301 299 302 311 310 308 314 315 315 294 299 294 291 319 322
237 230 259 263 247 244 260 257 262 268 271 275 269 276 284 271 281 292 262 274 277 285 276 288 289 291 296 296 294 286 286 308 302 303 310 312 311 312 316 318 285 286 313 320 291
233 270 243 267 252 252 261 270 265 269 269 266 267 274 281 276 276 299 283 288 289 289 283 294 291 295 296 294 289 291 286 303 307 309 309 309 313 310 312 302 315 303 316 318 319
238 246 259 258 259 251 258 257 265 264 285 281 280 286 278 279 290 274 285 269 288 290 290 293 291 298 294 294 298 300 301 301 305 306 305 307 307 308 298 304 315 315 315 316 306
251 251 264 267 265 272 256 267 267 265 263 266 268 278 275 277 283 286 286 307 284 289 293 295 293 295 296 297 298 300 300 302 305 305 300 307 308 306 311 314 313 314 315 275 300
246 250 265 258 255 258 262 261 264 265 269 272 270 275 281 282 282 283 279 296 286 291 289 294 294 291 291 299 302 300 303 303 303 304 296 302 305 307 310 311 310 290 312 311 312
254 256 255 256 258 259 284 263 269 268 271 274 272 272 284 279 280 294 290 292 293 289 291 290 290 289 291 295 298 298 304 299 304 293 305 306 306 307 304 299 307 313 308 310 311
251 253 260 257 260 260 263 266 268 269 271 272 274 274 277 278 277 288 284 283 284 286 288 291 290 291 294 294 295 296 299 302 305 304 305 307 308 281 305 308 311 309 308 307 308
251 257 261 260 259 261 264 271 271 273 272 271 273 275 275 277 283 284 283 284 284 284 285 286 289 292 292 301 301 297 300 303 303 304 301 307 295 301 308 307 312 308 309 310 311
256 256 257 261 261 261 262 266 266 267 269 277 276 278 279 280 282 282 282 282 285 284 284 289 289 299 291 294 296 301 292 300 302 303 304 306 305 306 305 311 311 313 309 309 311
253 254 256 257 258 260 263 263 269 275 269 270 274 274 279 280 282 281 282 285 282 288 285 295 294 295 294 294 299 293 297 298 300 303 304 306 305 306 306 307 310 312 307 311 308
269 261 255 259 260 260 267 271 279 266 269 273 275 275 284 277 277 285 281 282 284 287 290 289 288 289 292 292 295 299 302 301 303 303 304 304 305 302 302 305 309 309 306 307 309
277 277 266 278 274 276 268 279 277 275 278 272 274 280 283 285 288 279 288 288 289 286 293 294 289 290 295 295 298 299 298 299 299 301 302 300 300 302 303 303 303 306 306 308 310
266 259 260 275 275 270 273 275 279 271 279 280 278 275 280 279 279 279 286 287 286 286 289 288 291 291 292 290 295 296 295 297 299 300 301 303 305 305 303 301 303 304 307 306 304